| time (UTC) | temp C | wind direction | speed KPH | gust KPH | rain 1hr cm | rain 24hr cm | rain mn cm | humidity % | barometer mb |
| 20260831053851 | 19 | 36 | 1.6 | 6.4 | 0.00 | 0.00 | 0.00 | 72 | 1007.8 |
| 20260831053347 | 19 | 40 | 3.2 | 8.0 | 0.00 | 0.00 | 0.00 | 70 | 1007.9 |
| 20260831052844 | 19 | 55 | 1.6 | 9.7 | 0.00 | 0.00 | 0.00 | 69 | 1007.7 |
| 20260831052558 | 20 | 20 | 6.4 | 9.7 | 0.00 | 0.00 | 0.00 | 69 | 1007.8 |
| 20260831051835 | 20 | 17 | 3.2 | 8.0 | 0.00 | 0.00 | 0.00 | 68 | 1007.9 |
| 20260831051342 | 20 | 18 | 0.0 | 6.4 | 0.00 | 0.00 | 0.00 | 68 | 1007.9 |
| 20260831050825 | 20 | 41 | 3.2 | 6.4 | 0.00 | 0.00 | 0.00 | 68 | 1007.7 |
| 20260831050322 | 20 | 38 | 1.6 | 9.7 | 0.00 | 0.00 | 0.00 | 66 | 1008.0 |
| 20260831045818 | 20 | 132 | 3.2 | 9.7 | 0.00 | 0.00 | 0.00 | 68 | 1008.0 |
| 20260831045314 | 20 | 31 | 3.2 | 6.4 | 0.00 | 0.00 | 0.00 | 67 | 1007.7 |
| 20260831045248 | 20 | 340 | 1.6 | 6.4 | 0.00 | 0.00 | 0.00 | 65 | 1007.9 |
| 20260831044255 | 20 | 322 | 3.2 | 12.9 | 0.00 | 0.00 | 0.00 | 65 | 1007.8 |
| 20260831044007 | 21 | 339 | 3.2 | 12.9 | 0.00 | 0.00 | 0.00 | 65 | 1007.7 |
| 20260831043216 | 21 | 3 | 1.6 | 6.4 | 0.00 | 0.00 | 0.00 | 64 | 1007.9 |
| 20260831042713 | 21 | 67 | 4.8 | 4.8 | 0.00 | 0.00 | 0.00 | 65 | 1007.8 |
| 20260831042208 | 21 | 356 | 3.2 | 4.8 | 0.00 | 0.00 | 0.00 | 63 | 1007.7 |
| 20260831041645 | 21 | 15 | 3.2 | 6.4 | 0.00 | 0.00 | 0.00 | 64 | 1007.9 |
| 20260831041142 | 21 | 79 | 0.0 | 6.4 | 0.00 | 0.00 | 0.00 | 62 | 1007.8 |
| 20260831040615 | 22 | 33 | 1.6 | 9.7 | 0.00 | 0.00 | 0.00 | 60 | 1007.8 |
| 20260831040112 | 21 | 4 | 4.8 | 9.7 | 0.00 | 0.00 | 0.00 | 59 | 1007.8 |
| 20260831035606 | 21 | 29 | 3.2 | 8.0 | 0.00 | 0.00 | 0.00 | 61 | 1007.8 |
| 20260831035103 | 21 | 17 | 3.2 | 6.4 | 0.00 | 0.00 | 0.00 | 61 | 1007.8 |
| 20260831034559 | 21 | 12 | 3.2 | 6.4 | 0.00 | 0.00 | 0.00 | 63 | 1007.8 |
| 20260831034054 | 21 | 16 | 3.2 | 6.4 | 0.00 | 0.00 | 0.00 | 61 | 1007.9 |
| 20260831033539 | 22 | 15 | 4.8 | 6.4 | 0.00 | 0.00 | 0.00 | 59 | 1007.9 |
| 20260831033036 | 22 | 28 | 3.2 | 9.7 | 0.00 | 0.00 | 0.00 | 59 | 1007.8 |
| 20260831032532 | 21 | 0 | 3.2 | 9.7 | 0.00 | 0.00 | 0.00 | 62 | 1007.9 |
| 20260831032028 | 21 | 25 | 4.8 | 6.4 | 0.00 | 0.00 | 0.00 | 65 | 1007.8 |
| 20260831031526 | 20 | 25 | 1.6 | 6.4 | 0.00 | 0.00 | 0.00 | 65 | 1008.0 |
| 20260831031009 | 21 | 9 | 0.0 | 6.4 | 0.00 | 0.00 | 0.00 | 63 | 1007.8 |
| 20260831030505 | 20 | 20 | 1.6 | 6.4 | 0.00 | 0.00 | 0.00 | 64 | 1008.0 |
| 20260831025941 | 21 | 54 | 0.0 | 6.4 | 0.00 | 0.00 | 0.00 | 63 | 1007.9 |
| 20260831025436 | 21 | 3 | 6.4 | 6.4 | 0.00 | 0.00 | 0.00 | 63 | 1008.1 |
| 20260831024932 | 22 | 11 | 3.2 | 6.4 | 0.00 | 0.00 | 0.00 | 62 | 1008.1 |
| 20260831024428 | 22 | 347 | 3.2 | 6.4 | 0.00 | 0.00 | 0.00 | 61 | 1008.1 |
| 20260831023924 | 22 | 346 | 3.2 | 6.4 | 0.00 | 0.00 | 0.00 | 63 | 1008.1 |
| 20260831023420 | 21 | 352 | 1.6 | 8.0 | 0.00 | 0.00 | 0.00 | 64 | 1008.2 |
| 20260831023135 | 22 | 19 | 4.8 | 8.0 | 0.00 | 0.00 | 0.00 | 63 | 1008.5 |
| 20260831022412 | 22 | 352 | 3.2 | 6.4 | 0.00 | 0.00 | 0.00 | 62 | 1008.3 |
| 20260831021908 | 21 | 15 | 4.8 | 8.0 | 0.00 | 0.00 | 0.00 | 64 | 1008.4 |
| 20260831021351 | 21 | 1 | 3.2 | 8.0 | 0.00 | 0.00 | 0.00 | 68 | 1008.5 |
| 20260831020839 | 20 | 15 | 3.2 | 6.4 | 0.00 | 0.00 | 0.00 | 68 | 1008.6 |
| 20260831020335 | 20 | 348 | 0.0 | 8.0 | 0.00 | 0.00 | 0.00 | 68 | 1008.5 |
| 20260831015831 | 21 | 20 | 3.2 | 8.0 | 0.00 | 0.00 | 0.00 | 67 | 1008.7 |
| 20260831015320 | 21 | 17 | 3.2 | 6.4 | 0.00 | 0.00 | 0.00 | 67 | 1008.7 |
| 20260831014820 | 20 | 348 | 3.2 | 6.4 | 0.00 | 0.00 | 0.00 | 67 | 1008.9 |
| 20260831014320 | 20 | 28 | 1.6 | 6.4 | 0.00 | 0.00 | 0.00 | 68 | 1009.0 |
| 20260831013815 | 20 | 27 | 3.2 | 6.4 | 0.00 | 0.00 | 0.00 | 67 | 1008.9 |
| 20260831013311 | 20 | 2 | 4.8 | 6.4 | 0.00 | 0.00 | 0.00 | 67 | 1008.9 |
| 20260831012806 | 20 | 1 | 4.8 | 6.4 | 0.00 | 0.00 | 0.00 | 67 | 1008.8 |
| 20260831012305 | 20 | 7 | 3.2 | 8.0 | 0.00 | 0.00 | 0.00 | 68 | 1009.1 |
| 20260831011748 | 21 | 344 | 3.2 | 8.0 | 0.00 | 0.00 | 0.00 | 66 | 1009.2 |
| 20260831011244 | 21 | 18 | 3.2 | 9.7 | 0.00 | 0.00 | 0.00 | 65 | 1009.2 |
| 20260831010740 | 21 | 0 | 0.0 | 9.7 | 0.00 | 0.00 | 0.00 | 65 | 1009.2 |
| 20260831010235 | 21 | 343 | 8.0 | 9.7 | 0.00 | 0.00 | 0.00 | 64 | 1009.3 |
| 20260831005721 | 21 | 12 | 4.8 | 8.0 | 0.00 | 0.00 | 0.00 | 66 | 1009.4 |
| 20260831005217 | 21 | 18 | 4.8 | 8.0 | 0.00 | 0.00 | 0.00 | 64 | 1009.3 |
| 20260831004934 | 20 | 12 | 3.2 | 8.0 | 0.00 | 0.00 | 0.00 | 65 | 1009.5 |
| 20260831004208 | 21 | 23 | 3.2 | 8.0 | 0.00 | 0.00 | 0.00 | 67 | 1009.6 |
| 20260831003654 | 20 | 18 | 3.2 | 8.0 | 0.00 | 0.00 | 0.00 | 66 | 1009.5 |
| 20260831003148 | 20 | 22 | 3.2 | 8.0 | 0.00 | 0.00 | 0.00 | 66 | 1009.6 |
| 20260831002648 | 20 | 354 | 1.6 | 6.4 | 0.00 | 0.00 | 0.00 | 67 | 1009.7 |
| 20260831002409 | 20 | 84 | 3.2 | 6.4 | 0.00 | 0.00 | 0.00 | 67 | 1009.7 |
| 20260831001648 | 20 | 3 | 3.2 | 6.4 | 0.00 | 0.00 | 0.00 | 67 | 1009.8 |
| 20260831001143 | 20 | 19 | 3.2 | 6.4 | 0.00 | 0.00 | 0.00 | 66 | 1009.8 |
| 20260831000640 | 18 | 5 | 0.0 | 8.0 | 0.00 | 0.00 | 0.00 | 68 | 1009.9 |
| 20260831000136 | 19 | 0 | 3.2 | 8.0 | 0.00 | 0.00 | 0.00 | 68 | 1009.9 |
| 20260830235632 | 19 | 168 | 6.4 | 8.0 | 0.00 | 0.00 | 0.00 | 68 | 1009.8 |
| 20260830235128 | 19 | 167 | 6.4 | 8.0 | 0.00 | 0.00 | 0.00 | 67 | 1009.9 |
| 20260830234614 | 18 | 170 | 4.8 | 9.7 | 0.00 | 0.00 | 0.00 | 69 | 1010.2 |
| 20260830234109 | 18 | 175 | 6.4 | 9.7 | 0.00 | 0.00 | 0.00 | 71 | 1010.1 |
| 20260830233555 | 18 | 186 | 4.8 | 9.7 | 0.00 | 0.00 | 0.00 | 74 | 1010.2 |
| 20260830233051 | 17 | 187 | 4.8 | 9.7 | 0.00 | 0.00 | 0.00 | 78 | 1010.0 |
| 20260830232558 | 17 | 174 | 8.0 | 8.0 | 0.00 | 0.00 | 0.00 | 80 | 1010.2 |
| 20260830232042 | 15 | 176 | 6.4 | 8.0 | 0.00 | 0.00 | 0.00 | 86 | 1010.2 |
| 20260830231538 | 15 | 178 | 6.4 | 8.0 | 0.00 | 0.00 | 0.00 | 87 | 1010.4 |
| 20260830231240 | 15 | 182 | 6.4 | 8.0 | 0.00 | 0.00 | 0.00 | 88 | 1010.3 |
| 20260830230509 | 14 | 195 | 4.8 | 8.0 | 0.00 | 0.00 | 0.00 | 88 | 1010.4 |
| 20260830230227 | 15 | 177 | 6.4 | 8.0 | 0.00 | 0.00 | 0.00 | 88 | 1010.4 |
| 20260830225502 | 15 | 180 | 4.8 | 8.0 | 0.00 | 0.00 | 0.00 | 88 | 1010.3 |
| 20260830224957 | 14 | 177 | 6.4 | 8.0 | 0.00 | 0.00 | 0.00 | 91 | 1010.1 |
| 20260830224445 | 13 | 179 | 6.4 | 8.0 | 0.00 | 0.00 | 0.00 | 93 | 1010.2 |
| 20260830223945 | 13 | 179 | 6.4 | 8.0 | 0.00 | 0.00 | 0.00 | 95 | 1010.3 |
| 20260830223445 | 13 | 175 | 6.4 | 8.0 | 0.00 | 0.00 | 0.00 | 96 | 1010.1 |
| 20260830222932 | 13 | 179 | 4.8 | 8.0 | 0.00 | 0.00 | 0.00 | 97 | 1010.2 |
| 20260830222639 | 13 | 177 | 6.4 | 8.0 | 0.00 | 0.00 | 0.00 | 97 | 1010.1 |
| 20260830221915 | 12 | 178 | 6.4 | 8.0 | 0.00 | 0.00 | 0.00 | 98 | 1010.1 |
| 20260830221414 | 12 | 172 | 6.4 | 8.0 | 0.00 | 0.00 | 0.00 | 98 | 1010.1 |
| 20260830220914 | 12 | 180 | 4.8 | 8.0 | 0.00 | 0.00 | 0.00 | 98 | 1009.9 |
| 20260830220852 | 12 | 181 | 6.4 | 8.0 | 0.00 | 0.00 | 0.00 | 98 | 1010.0 |
| 20260830215856 | 12 | 169 | 6.4 | 8.0 | 0.00 | 0.00 | 0.00 | 98 | 1010.1 |
| 20260830215351 | 12 | 177 | 8.0 | 8.0 | 0.00 | 0.00 | 0.00 | 98 | 1010.0 |
| 20260830214847 | 12 | 182 | 6.4 | 9.7 | 0.00 | 0.00 | 0.00 | 98 | 1009.8 |
| 20260830214343 | 11 | 178 | 6.4 | 9.7 | 0.00 | 0.00 | 0.00 | 98 | 1009.8 |
| 20260830213843 | 11 | 188 | 4.8 | 6.4 | 0.00 | 0.00 | 0.00 | 98 | 1009.6 |
| 20260830213344 | 11 | 189 | 6.4 | 6.4 | 0.00 | 0.00 | 0.00 | 98 | 1009.7 |
| 20260830212844 | 11 | 182 | 4.8 | 6.4 | 0.00 | 0.00 | 0.00 | 98 | 1009.8 |
| 20260830212337 | 11 | 180 | 6.4 | 6.4 | 0.00 | 0.00 | 0.00 | 98 | 1009.6 |
| 20260830211812 | 11 | 200 | 4.8 | 8.0 | 0.00 | 0.00 | 0.00 | 98 | 1009.6 |
| 20260830211748 | 12 | 189 | 4.8 | 8.0 | 0.00 | 0.00 | 0.00 | 98 | 1009.3 |
| 20260830210755 | 11 | 173 | 6.4 | 8.0 | 0.00 | 0.00 | 0.00 | 99 | 1009.4 |
| 20260830210230 | 11 | 180 | 6.4 | 8.0 | 0.00 | 0.00 | 0.00 | 98 | 1009.5 |
| 20260830205726 | 11 | 185 | 6.4 | 8.0 | 0.00 | 0.00 | 0.00 | 98 | 1009.5 |
| 20260830205212 | 11 | 181 | 6.4 | 8.0 | 0.00 | 0.00 | 0.00 | 98 | 1009.4 |
| 20260830204713 | 10 | 177 | 8.0 | 8.0 | 0.00 | 0.00 | 0.00 | 99 | 1009.3 |
| 20260830204212 | 10 | 174 | 4.8 | 8.0 | 0.00 | 0.00 | 0.00 | 98 | 1009.3 |
| 20260830203932 | 10 | 170 | 6.4 | 8.0 | 0.00 | 0.00 | 0.00 | 98 | 1009.3 |
| 20260830203155 | 10 | 179 | 6.4 | 8.0 | 0.00 | 0.00 | 0.00 | 98 | 1009.3 |
| 20260830202641 | 10 | 177 | 6.4 | 8.0 | 0.00 | 0.00 | 0.00 | 98 | 1009.1 |
| 20260830202141 | 10 | 179 | 6.4 | 8.0 | 0.00 | 0.00 | 0.00 | 98 | 1009.0 |
| 20260830201654 | 10 | 176 | 6.4 | 8.0 | 0.00 | 0.00 | 0.00 | 98 | 1009.1 |
| 20260830201358 | 10 | 181 | 6.4 | 8.0 | 0.00 | 0.00 | 0.00 | 98 | 1009.1 |
| 20260830200611 | 10 | 175 | 6.4 | 8.0 | 0.00 | 0.00 | 0.00 | 98 | 1009.0 |
| 20260830200113 | 10 | 183 | 6.4 | 8.0 | 0.00 | 0.00 | 0.00 | 98 | 1008.8 |
| 20260830195556 | 10 | 177 | 8.0 | 8.0 | 0.00 | 0.00 | 0.00 | 98 | 1008.8 |
| 20260830195041 | 10 | 178 | 8.0 | 8.0 | 0.00 | 0.00 | 0.00 | 98 | 1008.9 |
| 20260830194537 | 10 | 177 | 8.0 | 9.7 | 0.00 | 0.00 | 0.00 | 98 | 1008.8 |
| 20260830194254 | 10 | 180 | 6.4 | 9.7 | 0.00 | 0.00 | 0.00 | 98 | 1008.6 |
| 20260830193530 | 10 | 180 | 9.7 | 9.7 | 0.00 | 0.00 | 0.00 | 98 | 1008.5 |
| 20260830193010 | 11 | 179 | 6.4 | 9.7 | 0.00 | 0.00 | 0.00 | 98 | 1008.4 |
| 20260830192510 | 11 | 178 | 8.0 | 9.7 | 0.00 | 0.00 | 0.00 | 98 | 1008.3 |
| 20260830191947 | 11 | 180 | 8.0 | 9.7 | 0.00 | 0.00 | 0.00 | 99 | 1008.3 |
| 20260830191440 | 10 | 175 | 6.4 | 9.7 | 0.00 | 0.00 | 0.00 | 99 | 1008.2 |
| 20260830190939 | 10 | 180 | 8.0 | 9.7 | 0.00 | 0.00 | 0.00 | 98 | 1008.3 |
| 20260830190425 | 10 | 173 | 8.0 | 9.7 | 0.00 | 0.00 | 0.00 | 98 | 1008.3 |
| 20260830185908 | 10 | 173 | 6.4 | 9.7 | 0.00 | 0.00 | 0.00 | 98 | 1008.3 |
| 20260830185406 | 10 | 178 | 8.0 | 9.7 | 0.00 | 0.00 | 0.00 | 98 | 1008.3 |
| 20260830185107 | 10 | 172 | 8.0 | 9.7 | 0.00 | 0.00 | 0.00 | 98 | 1008.2 |
| 20260830184601 | 10 | 174 | 8.0 | 9.7 | 0.00 | 0.00 | 0.00 | 98 | 1008.3 |
| 20260830183838 | 10 | 179 | 6.4 | 9.7 | 0.00 | 0.00 | 0.00 | 98 | 1008.4 |
| 20260830183338 | 10 | 178 | 9.7 | 9.7 | 0.00 | 0.00 | 0.00 | 98 | 1008.3 |
| 20260830182835 | 10 | 176 | 8.0 | 9.7 | 0.00 | 0.00 | 0.00 | 98 | 1008.4 |
| 20260830182311 | 10 | 172 | 6.4 | 9.7 | 0.00 | 0.00 | 0.00 | 98 | 1008.3 |
| 20260830181757 | 10 | 179 | 8.0 | 9.7 | 0.00 | 0.00 | 0.00 | 98 | 1008.2 |
| 20260830181737 | 10 | 180 | 6.4 | 9.7 | 0.00 | 0.00 | 0.00 | 98 | 1008.2 |
| 20260830180738 | 10 | 175 | 6.4 | 9.7 | 0.00 | 0.00 | 0.00 | 98 | 1008.3 |
| 20260830180234 | 10 | 179 | 8.0 | 9.7 | 0.00 | 0.00 | 0.00 | 98 | 1008.2 |
| 20260830175730 | 10 | 173 | 8.0 | 9.7 | 0.00 | 0.00 | 0.00 | 98 | 1008.3 |
| 20260830175216 | 10 | 174 | 6.4 | 8.0 | 0.00 | 0.00 | 0.00 | 98 | 1008.2 |
| 20260830174713 | 10 | 185 | 6.4 | 8.0 | 0.00 | 0.00 | 0.00 | 98 | 1008.2 |
| 20260830174207 | 10 | 175 | 6.4 | 9.7 | 0.00 | 0.00 | 0.00 | 98 | 1008.4 |
| 20260830173655 | 11 | 175 | 8.0 | 9.7 | 0.00 | 0.00 | 0.00 | 98 | 1008.3 |
| 20260830173149 | 10 | 179 | 8.0 | 9.7 | 0.00 | 0.00 | 0.00 | 98 | 1008.4 |
| 20260830172646 | 10 | 179 | 6.4 | 9.7 | 0.00 | 0.00 | 0.00 | 98 | 1008.2 |
| 20260830172137 | 10 | 180 | 8.0 | 9.7 | 0.00 | 0.00 | 0.00 | 98 | 1008.3 |
| 20260830171637 | 10 | 177 | 8.0 | 9.7 | 0.00 | 0.00 | 0.00 | 98 | 1008.3 |
| 20260830171113 | 10 | 173 | 6.4 | 9.7 | 0.00 | 0.00 | 0.00 | 98 | 1008.3 |
| 20260830170606 | 10 | 178 | 6.4 | 9.7 | 0.00 | 0.00 | 0.00 | 98 | 1008.3 |
| 20260830170107 | 10 | 180 | 6.4 | 8.0 | 0.00 | 0.00 | 0.00 | 98 | 1008.3 |
| 20260830165551 | 10 | 176 | 6.4 | 8.0 | 0.00 | 0.00 | 0.00 | 98 | 1008.4 |
| 20260830165046 | 10 | 178 | 6.4 | 8.0 | 0.00 | 0.00 | 0.00 | 98 | 1008.4 |
| 20260830164522 | 10 | 177 | 6.4 | 8.0 | 0.00 | 0.00 | 0.00 | 98 | 1008.3 |
| 20260830164018 | 10 | 175 | 6.4 | 8.0 | 0.00 | 0.00 | 0.00 | 98 | 1008.4 |
| 20260830163514 | 10 | 173 | 8.0 | 8.0 | 0.00 | 0.00 | 0.00 | 98 | 1008.4 |
| 20260830163010 | 11 | 177 | 8.0 | 8.0 | 0.00 | 0.00 | 0.00 | 98 | 1008.6 |
| 20260830162730 | 11 | 177 | 6.4 | 8.0 | 0.00 | 0.00 | 0.00 | 98 | 1008.6 |
| 20260830161951 | 11 | 176 | 6.4 | 8.0 | 0.00 | 0.00 | 0.00 | 98 | 1008.5 |
| 20260830161706 | 11 | 185 | 6.4 | 8.0 | 0.00 | 0.00 | 0.00 | 98 | 1008.5 |
| 20260830160943 | 11 | 179 | 6.4 | 8.0 | 0.00 | 0.00 | 0.00 | 98 | 1008.5 |
| 20260830160428 | 11 | 175 | 6.4 | 8.0 | 0.00 | 0.00 | 0.00 | 98 | 1008.5 |
| 20260830160138 | 11 | 179 | 6.4 | 8.0 | 0.00 | 0.00 | 0.00 | 98 | 1008.4 |
| 20260830155409 | 11 | 171 | 6.4 | 8.0 | 0.00 | 0.00 | 0.00 | 98 | 1008.6 |
| 20260830154905 | 11 | 174 | 8.0 | 8.0 | 0.00 | 0.00 | 0.00 | 98 | 1008.7 |
| 20260830154402 | 11 | 177 | 6.4 | 8.0 | 0.00 | 0.00 | 0.00 | 98 | 1008.8 |
| 20260830153858 | 11 | 182 | 4.8 | 9.7 | 0.00 | 0.00 | 0.00 | 98 | 1008.6 |
| 20260830153353 | 11 | 173 | 6.4 | 9.7 | 0.00 | 0.00 | 0.00 | 98 | 1008.7 |
| 20260830152849 | 11 | 177 | 6.4 | 9.7 | 0.00 | 0.00 | 0.00 | 98 | 1008.7 |
| 20260830152325 | 11 | 175 | 6.4 | 9.7 | 0.00 | 0.00 | 0.00 | 98 | 1008.8 |
| 20260830152034 | 11 | 179 | 8.0 | 9.7 | 0.00 | 0.00 | 0.00 | 98 | 1009.0 |
| 20260830151256 | 11 | 172 | 6.4 | 9.7 | 0.00 | 0.00 | 0.00 | 98 | 1009.0 |
| 20260830150753 | 11 | 176 | 8.0 | 9.7 | 0.00 | 0.00 | 0.00 | 97 | 1009.0 |
| 20260830150249 | 11 | 180 | 6.4 | 9.7 | 0.00 | 0.00 | 0.00 | 97 | 1009.1 |
| 20260830150003 | 11 | 179 | 6.4 | 8.0 | 0.00 | 0.00 | 0.00 | 98 | 1009.0 |
| 20260830145232 | 11 | 172 | 6.4 | 9.7 | 0.00 | 0.03 | 0.00 | 98 | 1009.1 |
| 20260830144716 | 11 | 173 | 8.0 | 9.7 | 0.00 | 0.03 | 0.00 | 98 | 1009.3 |
| 20260830144212 | 11 | 169 | 6.4 | 9.7 | 0.00 | 0.03 | 0.00 | 97 | 1009.3 |
| 20260830143701 | 11 | 179 | 6.4 | 9.7 | 0.00 | 0.03 | 0.00 | 97 | 1009.3 |
| 20260830143154 | 11 | 176 | 8.0 | 9.7 | 0.00 | 0.03 | 0.00 | 97 | 1009.2 |
| 20260830142639 | 11 | 178 | 6.4 | 9.7 | 0.00 | 0.03 | 0.00 | 97 | 1009.5 |
| 20260830142411 | 11 | 173 | 6.4 | 8.0 | 0.00 | 0.03 | 0.00 | 97 | 1009.5 |
| 20260830141631 | 11 | 174 | 8.0 | 8.0 | 0.00 | 0.03 | 0.00 | 97 | 1009.3 |
| 20260830141609 | 11 | 173 | 6.4 | 8.0 | 0.00 | 0.03 | 0.00 | 97 | 1009.4 |
| 20260830140612 | 11 | 180 | 6.4 | 8.0 | 0.00 | 0.03 | 0.00 | 97 | 1009.4 |
| 20260830140328 | 11 | 182 | 6.4 | 8.0 | 0.00 | 0.03 | 0.00 | 97 | 1009.4 |
| 20260830135600 | 11 | 179 | 6.4 | 8.0 | 0.00 | 0.03 | 0.03 | 97 | 1009.5 |
| 20260830135100 | 11 | 176 | 8.0 | 8.0 | 0.00 | 0.03 | 0.03 | 97 | 1009.4 |
| 20260830134600 | 11 | 182 | 6.4 | 9.7 | 0.00 | 0.03 | 0.03 | 97 | 1009.3 |
| 20260830134100 | 11 | 177 | 8.0 | 9.7 | 0.00 | 0.03 | 0.03 | 97 | 1009.3 |
| 20260830133823 | 11 | 174 | 8.0 | 9.7 | 0.00 | 0.03 | 0.03 | 97 | 1009.6 |
| 20260830133309 | 11 | 176 | 8.0 | 9.7 | 0.00 | 0.03 | 0.03 | 97 | 1009.3 |
| 20260830132540 | 11 | 175 | 8.0 | 9.7 | 0.00 | 0.03 | 0.03 | 97 | 1009.3 |
| 20260830132036 | 11 | 170 | 6.4 | 9.7 | 0.00 | 0.03 | 0.03 | 97 | 1009.2 |
| 20260830131521 | 11 | 180 | 8.0 | 9.7 | 0.00 | 0.03 | 0.03 | 97 | 1009.3 |
| 20260830131017 | 11 | 173 | 8.0 | 9.7 | 0.00 | 0.03 | 0.03 | 97 | 1009.1 |
| 20260830131000 | 11 | 176 | 8.0 | 9.7 | 0.00 | 0.05 | 0.03 | 97 | 1009.1 |
| 20260830130010 | 11 | 179 | 8.0 | 9.7 | 0.00 | 0.05 | 0.03 | 97 | 1009.3 |
| 20260830125445 | 11 | 179 | 9.7 | 9.7 | 0.00 | 0.05 | 0.03 | 97 | 1009.1 |
| 20260830124941 | 11 | 175 | 6.4 | 9.7 | 0.00 | 0.05 | 0.03 | 97 | 1009.1 |
| 20260830124437 | 11 | 178 | 6.4 | 9.7 | 0.00 | 0.05 | 0.03 | 97 | 1009.2 |
| 20260830123933 | 11 | 179 | 8.0 | 9.7 | 0.00 | 0.05 | 0.03 | 97 | 1009.1 |
| 20260830123428 | 11 | 176 | 6.4 | 8.0 | 0.00 | 0.08 | 0.03 | 96 | 1009.2 |
| 20260830122929 | 11 | 176 | 6.4 | 8.0 | 0.00 | 0.08 | 0.03 | 96 | 1009.3 |
| 20260830122428 | 11 | 178 | 6.4 | 8.0 | 0.00 | 0.08 | 0.03 | 96 | 1009.2 |
| 20260830121928 | 11 | 177 | 8.0 | 8.0 | 0.00 | 0.08 | 0.03 | 96 | 1009.3 |
| 20260830121411 | 11 | 178 | 6.4 | 9.7 | 0.00 | 0.08 | 0.03 | 96 | 1009.5 |
| 20260830120857 | 11 | 176 | 8.0 | 9.7 | 0.00 | 0.08 | 0.03 | 96 | 1009.2 |
| 20260830120602 | 11 | 178 | 6.4 | 9.7 | 0.00 | 0.08 | 0.03 | 96 | 1009.1 |
| 20260830115839 | 11 | 171 | 8.0 | 9.7 | 0.00 | 0.08 | 0.03 | 96 | 1009.2 |
| 20260830115314 | 11 | 179 | 8.0 | 8.0 | 0.00 | 0.08 | 0.03 | 96 | 1009.1 |
| 20260830114810 | 11 | 175 | 8.0 | 8.0 | 0.00 | 0.08 | 0.03 | 96 | 1009.1 |
| 20260830114306 | 11 | 174 | 6.4 | 8.0 | 0.00 | 0.08 | 0.03 | 96 | 1009.2 |
| 20260830114021 | 11 | 184 | 6.4 | 8.0 | 0.00 | 0.08 | 0.03 | 96 | 1009.4 |
| 20260830113257 | 12 | 179 | 6.4 | 8.0 | 0.00 | 0.08 | 0.03 | 95 | 1009.3 |
| 20260830112753 | 12 | 179 | 4.8 | 8.0 | 0.00 | 0.08 | 0.03 | 95 | 1009.6 |
| 20260830112226 | 12 | 180 | 6.4 | 8.0 | 0.00 | 0.08 | 0.03 | 95 | 1009.3 |
| 20260830111726 | 12 | 179 | 6.4 | 9.7 | 0.00 | 0.08 | 0.03 | 95 | 1009.3 |
| 20260830111226 | 12 | 181 | 8.0 | 9.7 | 0.00 | 0.08 | 0.03 | 95 | 1009.3 |
| 20260830110949 | 12 | 174 | 6.4 | 8.0 | 0.00 | 0.08 | 0.03 | 95 | 1009.3 |
| 20260830110446 | 12 | 180 | 6.4 | 8.0 | 0.00 | 0.08 | 0.03 | 95 | 1009.1 |
| 20260830105719 | 12 | 180 | 6.4 | 8.0 | 0.00 | 0.08 | 0.03 | 95 | 1009.3 |
| 20260830105215 | 12 | 185 | 6.4 | 8.0 | 0.00 | 0.08 | 0.03 | 95 | 1009.0 |
| 20260830104710 | 12 | 177 | 6.4 | 9.7 | 0.00 | 0.08 | 0.03 | 94 | 1009.0 |
| 20260830104206 | 12 | 182 | 6.4 | 9.7 | 0.00 | 0.08 | 0.03 | 94 | 1009.0 |
| 20260830103702 | 12 | 183 | 8.0 | 9.7 | 0.00 | 0.08 | 0.03 | 94 | 1009.0 |
| 20260830103156 | 12 | 180 | 6.4 | 9.7 | 0.00 | 0.08 | 0.03 | 94 | 1009.1 |
| 20260830102655 | 12 | 175 | 8.0 | 9.7 | 0.00 | 0.08 | 0.03 | 93 | 1009.0 |
| 20260830102140 | 12 | 177 | 8.0 | 9.7 | 0.00 | 0.08 | 0.03 | 93 | 1009.0 |
| 20260830101625 | 12 | 172 | 8.0 | 9.7 | 0.00 | 0.08 | 0.03 | 93 | 1009.1 |
| 20260830101122 | 12 | 179 | 8.0 | 8.0 | 0.00 | 0.08 | 0.03 | 93 | 1009.2 |
| 20260830100840 | 12 | 181 | 4.8 | 8.0 | 0.00 | 0.08 | 0.03 | 93 | 1008.8 |
| 20260830100114 | 12 | 181 | 6.4 | 8.0 | 0.00 | 0.08 | 0.03 | 92 | 1008.8 |
| 20260830095553 | 12 | 176 | 6.4 | 8.0 | 0.00 | 0.08 | 0.03 | 92 | 1008.8 |
| 20260830095314 | 13 | 191 | 6.4 | 8.0 | 0.00 | 0.08 | 0.03 | 91 | 1008.7 |
| 20260830094541 | 13 | 179 | 6.4 | 8.0 | 0.00 | 0.08 | 0.03 | 91 | 1008.6 |
| 20260830094036 | 13 | 180 | 6.4 | 8.0 | 0.00 | 0.08 | 0.03 | 90 | 1008.6 |
| 20260830093733 | 13 | 171 | 8.0 | 8.0 | 0.00 | 0.08 | 0.03 | 90 | 1008.7 |
| 20260830093008 | 13 | 174 | 6.4 | 8.0 | 0.00 | 0.08 | 0.03 | 89 | 1008.5 |
| 20260830092454 | 13 | 173 | 6.4 | 8.0 | 0.00 | 0.08 | 0.03 | 88 | 1008.3 |
| 20260830091949 | 13 | 175 | 6.4 | 8.0 | 0.00 | 0.08 | 0.03 | 88 | 1008.4 |
| 20260830091700 | 13 | 180 | 6.4 | 8.0 | 0.00 | 0.08 | 0.03 | 87 | 1008.3 |
| 20260830091148 | 13 | 182 | 6.4 | 8.0 | 0.00 | 0.08 | 0.03 | 87 | 1008.4 |
| 20260830090858 | 13 | 179 | 6.4 | 8.0 | 0.00 | 0.08 | 0.03 | 87 | 1008.3 |
| 20260830090134 | 13 | 177 | 6.4 | 9.7 | 0.00 | 0.08 | 0.03 | 87 | 1008.3 |
| 20260830085409 | 13 | 180 | 6.4 | 9.7 | 0.00 | 0.08 | 0.03 | 87 | 1008.5 |
| 20260830084854 | 13 | 175 | 6.4 | 9.7 | 0.00 | 0.08 | 0.03 | 87 | 1008.2 |
| 20260830084350 | 14 | 179 | 6.4 | 9.7 | 0.00 | 0.08 | 0.03 | 86 | 1008.2 |
| 20260830083845 | 14 | 178 | 8.0 | 9.7 | 0.00 | 0.08 | 0.03 | 86 | 1008.1 |
| 20260830083342 | 14 | 180 | 8.0 | 9.7 | 0.00 | 0.08 | 0.03 | 86 | 1008.2 |
| 20260830082828 | 14 | 177 | 8.0 | 9.7 | 0.00 | 0.08 | 0.03 | 85 | 1008.1 |
| 20260830082324 | 14 | 175 | 8.0 | 8.0 | 0.00 | 0.08 | 0.03 | 85 | 1008.1 |
| 20260830081821 | 14 | 178 | 6.4 | 8.0 | 0.00 | 0.08 | 0.03 | 84 | 1008.2 |
| 20260830081550 | 14 | 179 | 6.4 | 8.0 | 0.00 | 0.08 | 0.03 | 84 | 1008.0 |
| 20260830080821 | 15 | 177 | 6.4 | 8.0 | 0.00 | 0.08 | 0.03 | 84 | 1007.9 |
| 20260830080317 | 15 | 175 | 6.4 | 8.0 | 0.00 | 0.08 | 0.03 | 83 | 1008.0 |
| 20260830075813 | 15 | 180 | 6.4 | 8.0 | 0.00 | 0.08 | 0.03 | 82 | 1007.8 |
| 20260830075536 | 15 | 175 | 6.4 | 8.0 | 0.00 | 0.08 | 0.03 | 81 | 1007.7 |
| 20260830074754 | 15 | 175 | 6.4 | 9.7 | 0.00 | 0.08 | 0.03 | 80 | 1008.0 |
| 20260830074251 | 16 | 173 | 6.4 | 9.7 | 0.00 | 0.08 | 0.03 | 79 | 1007.6 |
| 20260830073746 | 16 | 167 | 6.4 | 9.7 | 0.00 | 0.08 | 0.03 | 79 | 1007.8 |
| 20260830073242 | 16 | 173 | 6.4 | 9.7 | 0.00 | 0.08 | 0.03 | 78 | 1007.7 |
| 20260830072718 | 16 | 176 | 6.4 | 9.7 | 0.00 | 0.08 | 0.03 | 78 | 1007.6 |
| 20260830072214 | 16 | 173 | 6.4 | 8.0 | 0.00 | 0.08 | 0.03 | 77 | 1007.5 |
| 20260830071709 | 16 | 177 | 6.4 | 8.0 | 0.00 | 0.08 | 0.03 | 77 | 1007.5 |
| 20260830071701 | 16 | 178 | 6.4 | 9.7 | 0.00 | 0.08 | 0.03 | 76 | 1007.4 |
| 20260830070651 | 17 | 171 | 6.4 | 9.7 | 0.00 | 0.08 | 0.03 | 75 | 1007.2 |
| 20260830070146 | 17 | 170 | 8.0 | 9.7 | 0.00 | 0.08 | 0.03 | 75 | 1007.5 |
| 20260830065643 | 17 | 179 | 6.4 | 9.7 | 0.00 | 0.08 | 0.03 | 75 | 1007.4 |
| 20260830065128 | 17 | 173 | 6.4 | 9.7 | 0.00 | 0.08 | 0.03 | 75 | 1007.4 |
| 20260830064614 | 17 | 175 | 6.4 | 8.0 | 0.00 | 0.08 | 0.03 | 74 | 1007.4 |
| 20260830064109 | 17 | 173 | 8.0 | 9.7 | 0.00 | 0.08 | 0.03 | 74 | 1007.4 |
| 20260830063606 | 17 | 174 | 6.4 | 9.7 | 0.00 | 0.08 | 0.03 | 74 | 1007.2 |
| 20260830063052 | 17 | 178 | 6.4 | 8.0 | 0.00 | 0.08 | 0.03 | 74 | 1007.2 |
| 20260830062548 | 17 | 171 | 6.4 | 9.7 | 0.00 | 0.08 | 0.03 | 73 | 1007.2 |
| 20260830062044 | 17 | 173 | 8.0 | 9.7 | 0.00 | 0.08 | 0.03 | 72 | 1007.2 |
| 20260830061756 | 17 | 169 | 6.4 | 9.7 | 0.00 | 0.08 | 0.03 | 71 | 1007.1 |
| 20260830061035 | 18 | 178 | 6.4 | 9.7 | 0.00 | 0.08 | 0.03 | 70 | 1007.3 |
| 20260830060511 | 18 | 174 | 6.4 | 9.7 | 0.00 | 0.08 | 0.03 | 71 | 1007.1 |
| 20260830060005 | 17 | 177 | 6.4 | 9.7 | 0.00 | 0.08 | 0.03 | 69 | 1007.3 |
| 20260830055452 | 17 | 175 | 8.0 | 9.7 | 0.00 | 0.08 | 0.03 | 69 | 1007.2 |
| 20260830054947 | 18 | 173 | 6.4 | 12.9 | 0.00 | 0.08 | 0.03 | 68 | 1007.0 |
| 20260830054433 | 18 | 176 | 8.0 | 12.9 | 0.00 | 0.08 | 0.03 | 68 | 1007.2 |